User: anonymous   Login
Location: Unspecified
(0.0000°N, 0.0000°E)
Time: 16:38:33
(UTC+00:00)
Language:

COSMOS 2490 - Orbit

View from above orbital plane
View from above orbital plane
View from above satellite
View from above satellite

Ground track
Ground track

The orbit data is extracted from the following two-line orbital elements,

1 39485U 13076C   17204.90734097 +.00000010 +00000-0 +00000-0 0  9990
2 39485 082.4820 034.1696 0021709 357.8048 002.2939 12.42884568162325
Epoch (UTC): 23 July 2017 21:46:34
Eccentricity: 0.0021709
inclination: 82.4820°
perigee height: 1477 km
apogee height: 1511 km
right ascension of ascending node: 34.1696°
argument of perigee: 357.8048°
revolutions per day: 12.42884568
mean anomaly at epoch: 2.2939°
orbit number at epoch: 16232

The dashed part of the orbit path shows where the satellite is in the earth's shadow,  

DLR